TimePDT,TemperatureF,Dew PointF,Humidity,Sea Level PressureIn,VisibilityMPH,Wind Direction,Wind SpeedMPH,Gust SpeedMPH,PrecipitationIn,Events,Conditions,WindDirDegrees,DateUTC
12:53 AM,48.9,44.1,83,30.13,10.0,NNE,11.5,-,N/A,,Clear,30,2006-10-22 07:53:00
1:53 AM,50.0,41.0,71,30.12,10.0,NE,11.5,-,N/A,,Clear,50,2006-10-22 08:53:00
2:53 AM,48.9,41.0,74,30.11,10.0,NE,8.1,-,N/A,,Clear,50,2006-10-22 09:53:00
3:53 AM,46.9,42.1,83,30.10,10.0,NE,6.9,-,N/A,,Clear,50,2006-10-22 10:53:00
4:53 AM,46.0,42.1,86,30.08,10.0,North,4.6,-,N/A,,Clear,10,2006-10-22 11:53:00
5:53 AM,45.0,42.1,90,30.08,9.0,NNW,4.6,-,N/A,,Clear,330,2006-10-22 12:53:00
6:53 AM,44.1,42.1,93,30.09,9.0,North,5.8,-,N/A,,Scattered Clouds,10,2006-10-22 13:53:00
7:50 AM,44.6,41.0,87,30.06,10.0,Calm,Calm,-,N/A,,Mostly Cloudy,0,2006-10-22 14:50:00
7:53 AM,43.0,42.1,97,30.08,10.0,Calm,Calm,-,N/A,,Mostly Cloudy,0,2006-10-22 14:53:00
8:53 AM,46.9,42.1,83,30.08,10.0,Calm,Calm,-,N/A,,Scattered Clouds,0,2006-10-22 15:53:00
9:53 AM,53.1,45.0,74,30.09,10.0,Calm,Calm,-,N/A,,Scattered Clouds,0,2006-10-22 16:53:00
10:53 AM,57.9,48.0,70,30.08,10.0,Variable,3.5,-,N/A,,Scattered Clouds,0,2006-10-22 17:53:00
11:53 AM,59.0,48.9,69,30.08,10.0,West,4.6,-,N/A,,Partly Cloudy,280,2006-10-22 18:53:00
12:53 PM,60.1,45.0,57,30.07,10.0,West,4.6,-,N/A,,Partly Cloudy,280,2006-10-22 19:53:00
1:53 PM,63.0,43.0,48,30.06,10.0,Variable,4.6,-,N/A,,Scattered Clouds,0,2006-10-22 20:53:00
2:53 PM,64.0,48.0,56,30.05,10.0,West,5.8,-,N/A,,Partly Cloudy,270,2006-10-22 21:53:00
3:53 PM,64.0,48.0,56,30.05,10.0,WNW,5.8,-,N/A,,Mostly Cloudy,300,2006-10-22 22:53:00
4:53 PM,64.0,46.0,52,30.05,10.0,SW,3.5,-,N/A,,Mostly Cloudy,220,2006-10-22 23:53:00
5:53 PM,55.9,48.9,77,30.06,10.0,WNW,9.2,-,N/A,,Scattered Clouds,300,2006-10-23 00:53:00
6:53 PM,55.0,42.1,62,30.08,10.0,NNE,9.2,-,N/A,,Scattered Clouds,20,2006-10-23 01:53:00
7:53 PM,55.0,41.0,59,30.11,10.0,NNE,8.1,-,N/A,,Scattered Clouds,20,2006-10-23 02:53:00
8:53 PM,54.0,39.0,57,30.12,10.0,NE,16.1,-,N/A,,Scattered Clouds,40,2006-10-23 03:53:00
9:53 PM,52.0,42.1,69,30.14,10.0,North,10.4,-,N/A,,Mostly Cloudy,10,2006-10-23 04:53:00
10:53 PM,50.0,43.0,77,30.14,10.0,North,6.9,-,N/A,,Scattered Clouds,360,2006-10-23 05:53:00
11:53 PM,48.9,43.0,80,30.17,10.0,North,6.9,-,N/A,,Partly Cloudy,10,2006-10-23 06:53:00